GSAT0222 (GALILEO 26)

Last updated on Sat Dec 13 2025 00:02:35 GMT+0000 (Coordinated Universal Time)

1 43565U 18060B 25345.57692878 -.00000087 00000+0 00000+0 0 9993 2 43565 57.2316 346.8519 0006146 263.5274 96.4200 1.70475594 46015
UTC large
Height (km)
Speed (km/s)
/
Latitude / Longitude
Inclination (degrees)
Orbital Period (minutes)
Azimuth
Elevation
Range (km)
Doppler Factor

Next 0 passes for location: London (51.5072 / 0.1276)

Sorry there are no passes over London.